User: anonymous   Login
Location: Demmingen
(48.6757°N, 10.4375°E)
Time: 11:31:53
(UTC+00:00)
Language:

Cosmos 2219 Rocket - Orbit

View from above orbital plane
View from above orbital plane
View from above satellite
View from above satellite

Ground track
Ground track

The orbit data is extracted from the following two-line orbital elements,

1 22220U 92076B   24200.91828973 -.00000066  00000-0 -88379-5 0  9991
2 22220  71.0012   9.5248 0015038 285.2727 182.7862 14.16673040637023
Epoch (UTC): 18 July 2024 22:02:20
Eccentricity: 0.0015038
inclination: 71.0012°
perigee height: 826 km
apogee height: 847 km
right ascension of ascending node: 9.5248°
argument of perigee: 285.2727°
revolutions per day: 14.16673040
mean anomaly at epoch: 182.7862°
orbit number at epoch: 63702

The dashed part of the orbit path shows where the satellite is in the earth's shadow,  

DLR